Regional Weather Roundup
Issued by NWS

Home | Current Version | Previous Version | Text Only | Print | Product List | Glossary On
Versions: 1 2 3 4 5 6 7 8 9 10 11 12 13 14 15 16 17 18 19 20 21 22 23 24 25 26 27 28 29 30 31 32 33 34 35 36 37 38 39 40 41 42 43 44 45 46 47 48 49 50
000
ASPQ40 PGUM 050514
RWRPQ
WEATHER ROUNDUP FOR THE MARIANAS AND MICRONESIA
NATIONAL WEATHER SERVICE TIYAN GU
300 PM CHST SUN JUL 05 2015

GUZ001>004-050600-
MARIANA ISLANDS-

CITY           SKY/WX    TMP DP  RH WIND       PRES   REMARKS
GUAM AIRPORT   RAIN      77  77 100 W29G38    29.39R FOG
ANDERSEN AFB   HVY RAIN  75  73  94 NW33G46   29.33R VSB 1/4
ROTA AIRPORT   NOT AVBL
TINIAN AP      NOT AVBL
SAIPAN AP      PTSUNNY   84  79  84 SE14G24   29.41S HX  96

$$

PMZ161-050600-
REPUBLIC OF PALAU-

CITY           SKY/WX    TMP DP  RH WIND       PRES   REMARKS
KOROR AP       PTSUNNY   88  75  66 W15G24    29.79F HX  97
KOROR WSO      CLOUDY    86  77  74 W12       29.79F HX  97

$$

PMZ171>174-050600-
FEDERATED STATES OF MICRONESIA-

CITY           SKY/WX    TMP DP  RH WIND       PRES   REMARKS
YAP AIRPORT    CLOUDY    84  77  79 W12G22    29.71F HX  94
CHUUK AP       PTSUNNY   86  79  79 S13       29.72S HX  99
POHNPEI AP     NOT AVBL
POHNPEI WSO    CLOUDY    82  77  83 W3        29.78F HX  91
KOSRAE AP      NOT AVBL

$$

PMZ181-050600-
REPUBLIC OF THE MARSHALL ISLANDS-

CITY           SKY/WX    TMP DP  RH WIND       PRES   REMARKS
KWAJALEIN AP   SUNNY     82  73  74 SE8       29.74S
MAJURO AP      NOT AVBL
MAJURO WSO     MOSUNNY   86  79  79 S5        29.75R HX  99

$$



USA.gov is the U.S. government's official web portal to all federal, state and local government web resources and services.